2012 Bogus South Gauge ,,,
Hourly Stream Data (Summary),,,
,,,
Dataset Reference Format:,,,
,"[Year of data collection] Stream data from Dry Creek Experimental Watershed. Watershed Process Research Group, Boise State University",,
, URL: earth.boisestate.edu/drycreek. Multi-paged. [month and day of data download].,,
,,,
Dataset Header Description,,,
,Column(s)| Variable| Description| [units],,
,1st Column  | DateTime| Time stamp of variable collection time* [MM/DD/YY  hr:mm],,
,2nd Column|Discharge -L/s|Stream Discharge instantaneous measurements [L/s],,
,3rd Column |StreamTemp-C| Stream Temperature [C],,
,4th Column |StreamEC-mS/cm| Stream Electrical Conductivity [mS/cm],,
,,,
,"* Due to data logger issues, shifting measurements were taken � 15 mins off the hour (00)",,
,**Note: -6999 denotes missing data,,
,,,
,,,
DateTime,Discharge-L/s,StreamTemp-C,StreamEC-mS/cm
1/1/2012 0:00,1.5,-0.3,-6999
1/1/2012 1:00,1.6,-0.2,-6999
1/1/2012 2:00,1.7,-0.1,-6999
1/1/2012 3:00,1.3,-0.1,-6999
1/1/2012 4:00,1.5,0,-6999
1/1/2012 5:00,1.5,0.1,-6999
1/1/2012 6:00,1.3,0.2,-6999
1/1/2012 7:00,1.3,0.3,-6999
1/1/2012 8:00,1.2,0.4,-6999
1/1/2012 9:00,1.2,0.5,-6999
1/1/2012 10:00,1.2,0.6,-6999
1/1/2012 11:00,1.3,0.8,-6999
1/1/2012 12:00,1.4,1,-6999
1/1/2012 13:00,1.5,1.1,-6999
1/1/2012 14:00,1.3,1.3,-6999
1/1/2012 15:00,1.4,1.3,-6999
1/1/2012 16:00,1.6,1.3,-6999
1/1/2012 17:00,1.5,1.2,-6999
1/1/2012 18:00,1.5,1.1,-6999
1/1/2012 19:00,1.6,1,-6999
1/1/2012 20:00,1.8,1,-6999
1/1/2012 21:00,1.8,1,-6999
1/1/2012 22:00,2,1.1,-6999
1/1/2012 23:00,2,1.1,-6999
1/2/2012 0:00,2.2,1.2,-6999
1/2/2012 1:00,2.1,1.2,-6999
1/2/2012 2:00,2.4,1.3,-6999
1/2/2012 3:00,2.7,1.3,-6999
1/2/2012 4:00,2.6,1.3,-6999
1/2/2012 5:00,2.7,1.4,-6999
1/2/2012 6:00,2.4,1.4,-6999
1/2/2012 7:00,2.6,1.4,-6999
1/2/2012 8:00,2.5,1.3,-6999
1/2/2012 9:00,2.4,1.3,-6999
1/2/2012 10:00,2.5,1.4,-6999
1/2/2012 11:00,2.9,1.6,-6999
1/2/2012 12:00,2.8,1.8,-6999
1/2/2012 13:00,2.9,2,-6999
1/2/2012 14:00,3.3,2,-6999
1/2/2012 15:00,3.3,2,-6999
1/2/2012 16:00,3.6,2,-6999
1/2/2012 17:00,3.8,2,-6999
1/2/2012 18:00,3.8,1.9,-6999
1/2/2012 19:00,3.5,1.8,-6999
1/2/2012 20:00,3.2,1.7,-6999
1/2/2012 21:00,2.6,1.7,-6999
1/2/2012 22:00,2.6,1.6,-6999
1/2/2012 23:00,2.8,1.5,-6999
1/3/2012 0:00,2.7,1.4,-6999
1/3/2012 1:00,2.4,1.4,-6999
1/3/2012 2:00,2.6,1.4,-6999
1/3/2012 3:00,2.3,1.4,-6999
1/3/2012 4:00,2.2,1.3,-6999
1/3/2012 5:00,2.1,1.2,-6999
1/3/2012 6:00,2.2,1.2,-6999
1/3/2012 7:00,2.1,1.2,-6999
1/3/2012 8:00,2,1.1,-6999
1/3/2012 9:00,2,1.1,-6999
1/3/2012 10:00,1.9,1.1,-6999
1/3/2012 11:00,2.1,1.4,-6999
1/3/2012 12:00,2.1,1.8,-6999
1/3/2012 13:00,2.3,1.9,-6999
1/3/2012 14:00,2.3,2.2,-6999
1/3/2012 15:00,2.4,2.3,-6999
1/3/2012 16:00,2.3,2.2,-6999
1/3/2012 17:00,2.2,2,-6999
1/3/2012 18:00,2.1,1.8,-6999
1/3/2012 19:00,2.4,1.7,-6999
1/3/2012 20:00,2.3,1.6,-6999
1/3/2012 21:00,2.1,1.5,-6999
1/3/2012 22:00,2.2,1.4,-6999
1/3/2012 23:00,2.2,1.3,-6999
1/4/2012 0:00,2.1,1.2,-6999
1/4/2012 1:00,2.3,1.1,-6999
1/4/2012 2:00,2.2,1.1,-6999
1/4/2012 3:00,2.6,1.1,-6999
1/4/2012 4:00,2.6,1.1,-6999
1/4/2012 5:00,2.3,1,-6999
1/4/2012 6:00,2.3,1,-6999
1/4/2012 7:00,2.5,1,-6999
1/4/2012 8:00,2.4,1,-6999
1/4/2012 9:00,2.3,1.1,-6999
1/4/2012 10:00,1.9,1.2,-6999
1/4/2012 11:00,2.2,1.4,-6999
1/4/2012 12:00,2.6,1.9,-6999
1/4/2012 13:00,2.7,2,-6999
1/4/2012 14:00,3,2.3,-6999
1/4/2012 15:00,2.8,2.3,-6999
1/4/2012 16:00,2.7,2.3,-6999
1/4/2012 17:00,2.7,2.1,-6999
1/4/2012 18:00,3,2,-6999
1/4/2012 19:00,2.7,1.8,-6999
1/4/2012 20:00,2.7,1.7,-6999
1/4/2012 21:00,2.9,1.6,-6999
1/4/2012 22:00,3.1,1.6,-6999
1/4/2012 23:00,3.3,1.6,-6999
1/5/2012 0:00,3.3,1.5,-6999
1/5/2012 1:00,3.2,1.5,-6999
1/5/2012 2:00,3,1.4,-6999
1/5/2012 3:00,3.2,1.6,-6999
1/5/2012 4:00,3.5,1.7,-6999
1/5/2012 5:00,3.2,1.7,-6999
1/5/2012 6:00,3,1.7,-6999
1/5/2012 7:00,2.9,1.8,-6999
1/5/2012 8:00,3,1.8,-6999
1/5/2012 9:00,2.8,1.9,-6999
1/5/2012 10:00,2.6,1.9,-6999
1/5/2012 11:00,2.6,2.1,-6999
1/5/2012 12:00,2.6,2.3,-6999
1/5/2012 13:00,2.5,2.4,-6999
1/5/2012 14:00,2.2,2.6,-6999
1/5/2012 15:00,2.1,2.5,-6999
1/5/2012 16:00,2.1,2.3,-6999
1/5/2012 17:00,2,2.2,-6999
1/5/2012 18:00,2.1,1.9,-6999
1/5/2012 19:00,1.9,1.7,-6999
1/5/2012 20:00,2,1.6,-6999
1/5/2012 21:00,2,1.4,-6999
1/5/2012 22:00,1.9,1.2,-6999
1/5/2012 23:00,1.8,1,-6999
1/6/2012 0:00,1.8,0.9,-6999
1/6/2012 1:00,1.7,0.7,-6999
1/6/2012 2:00,1.7,0.6,-6999
1/6/2012 3:00,1.7,0.5,-6999
1/6/2012 4:00,1.7,0.3,-6999
1/6/2012 5:00,1.8,0.2,-6999
1/6/2012 6:00,1.6,0.1,-6999
1/6/2012 7:00,1.6,0.1,-6999
1/6/2012 8:00,1.8,0,-6999
1/6/2012 9:00,1.7,-0.1,-6999
1/6/2012 10:00,1.7,-0.1,-6999
1/6/2012 11:00,1.7,0.1,-6999
1/6/2012 12:00,1.8,0.4,-6999
1/6/2012 13:00,1.8,0.6,-6999
1/6/2012 14:00,1.8,0.9,-6999
1/6/2012 15:00,1.9,1,-6999
1/6/2012 16:00,1.9,1,-6999
1/6/2012 17:00,1.9,1,-6999
1/6/2012 18:00,1.8,0.9,-6999
1/6/2012 19:00,1.8,0.8,-6999
1/6/2012 20:00,1.8,0.7,-6999
1/6/2012 21:00,1.8,0.7,-6999
1/6/2012 22:00,1.7,0.7,-6999
1/6/2012 23:00,1.8,0.6,-6999
1/7/2012 0:00,1.7,0.6,-6999
1/7/2012 1:00,1.6,0.6,-6999
1/7/2012 2:00,1.5,0.5,-6999
1/7/2012 3:00,1.5,0.5,-6999
1/7/2012 4:00,1.5,0.4,-6999
1/7/2012 5:00,1.4,0.3,-6999
1/7/2012 6:00,1.4,0.3,-6999
1/7/2012 7:00,1.4,0.3,-6999
1/7/2012 8:00,1.3,0.2,-6999
1/7/2012 9:00,1.3,0.1,-6999
1/7/2012 10:00,1.2,0.1,-6999
1/7/2012 11:00,1.3,0.2,-6999
1/7/2012 12:00,1.5,0.5,-6999
1/7/2012 13:00,1.4,0.6,-6999
1/7/2012 14:00,1.3,0.8,-6999
1/7/2012 15:00,1.3,0.8,-6999
1/7/2012 16:00,1.3,0.7,-6999
1/7/2012 17:00,1.2,0.5,-6999
1/7/2012 18:00,1.3,0.4,-6999
1/7/2012 19:00,1.2,0.2,-6999
1/7/2012 20:00,1.4,0.2,-6999
1/7/2012 21:00,1.4,0.1,-6999
1/7/2012 22:00,1.2,0.1,-6999
1/7/2012 23:00,1.5,0.2,-6999
1/8/2012 0:00,1.5,0.2,-6999
1/8/2012 1:00,1.6,0.2,-6999
1/8/2012 2:00,1.5,0.2,-6999
1/8/2012 3:00,1.3,0.3,-6999
1/8/2012 4:00,1.4,0.3,-6999
1/8/2012 5:00,1.3,0.3,-6999
1/8/2012 6:00,1.4,0.2,-6999
1/8/2012 7:00,1.4,0.1,-6999
1/8/2012 8:00,1.4,0.1,-6999
1/8/2012 9:00,1.3,0.1,-6999
1/8/2012 10:00,1.4,0.2,-6999
1/8/2012 11:00,1.4,0.6,-6999
1/8/2012 12:00,1.6,1,-6999
1/8/2012 13:00,1.5,1.2,-6999
1/8/2012 14:00,1.5,1.3,-6999
1/8/2012 15:00,1.5,1.4,-6999
1/8/2012 16:00,1.5,1.5,-6999
1/8/2012 17:00,1.5,1.4,-6999
1/8/2012 18:00,1.5,1.2,-6999
1/8/2012 19:00,1.6,1.1,-6999
1/8/2012 20:00,1.7,1,-6999
1/8/2012 21:00,1.6,1,-6999
1/8/2012 22:00,1.6,0.9,-6999
1/8/2012 23:00,1.6,0.7,-6999
1/9/2012 0:00,1.7,0.7,-6999
1/9/2012 1:00,1.7,0.6,-6999
1/9/2012 2:00,1.6,0.5,-6999
1/9/2012 3:00,1.7,0.4,-6999
1/9/2012 4:00,1.6,0.3,-6999
1/9/2012 5:00,1.6,0.3,-6999
1/9/2012 6:00,1.7,0.2,-6999
1/9/2012 7:00,1.6,0.2,-6999
1/9/2012 8:00,1.5,0.2,-6999
1/9/2012 9:00,1.5,0.2,-6999
1/9/2012 10:00,1.5,0.2,-6999
1/9/2012 11:00,1.7,0.5,-6999
1/9/2012 12:00,1.7,1,-6999
1/9/2012 13:00,2,1.2,-6999
1/9/2012 14:00,1.9,1.6,-6999
1/9/2012 15:00,1.9,1.6,-6999
1/9/2012 16:00,1.8,1.5,-6999
1/9/2012 17:00,1.7,1.4,-6999
1/9/2012 18:00,1.9,1.2,-6999
1/9/2012 19:00,1.9,1.1,-6999
1/9/2012 20:00,1.9,1,-6999
1/9/2012 21:00,2.1,0.9,-6999
1/9/2012 22:00,2.2,0.9,-6999
1/9/2012 23:00,2.2,0.8,-6999
1/10/2012 0:00,2.4,0.8,-6999
1/10/2012 1:00,2.4,0.7,-6999
1/10/2012 2:00,2.7,0.7,-6999
1/10/2012 3:00,2.2,0.7,-6999
1/10/2012 4:00,2.4,0.7,-6999
1/10/2012 5:00,2.9,0.7,-6999
1/10/2012 6:00,2.6,0.8,-6999
1/10/2012 7:00,2,0.8,-6999
1/10/2012 8:00,2,0.9,-6999
1/10/2012 9:00,1.6,1,-6999
1/10/2012 10:00,1.5,1,-6999
1/10/2012 11:00,1.7,1,-6999
1/10/2012 12:00,1.4,0.9,-6999
1/10/2012 13:00,1.4,0.9,-6999
1/10/2012 14:00,1.5,1,-6999
1/10/2012 15:00,1.5,1.1,-6999
1/10/2012 16:00,1.5,1.1,-6999
1/10/2012 17:00,1.5,1,-6999
1/10/2012 18:00,1.4,0.8,-6999
1/10/2012 19:00,1.5,0.6,-6999
1/10/2012 20:00,1.4,0.5,-6999
1/10/2012 21:00,1.5,0.3,-6999
1/10/2012 22:00,1.4,0.2,-6999
1/10/2012 23:00,1.3,0.1,-6999
1/11/2012 0:00,1.3,-0.1,-6999
1/11/2012 1:00,1.2,-0.1,-6999
1/11/2012 2:00,1.2,-0.2,-6999
1/11/2012 3:00,1.2,-0.3,-6999
1/11/2012 4:00,1.2,-0.4,-6999
1/11/2012 5:00,1.2,-0.4,-6999
1/11/2012 6:00,1.1,-0.5,-6999
1/11/2012 7:00,1.1,-0.5,-6999
1/11/2012 8:00,1,-0.5,-6999
1/11/2012 9:00,1.1,-0.6,-6999
1/11/2012 10:00,1.1,-0.5,-6999
1/11/2012 11:00,1.1,-0.5,-6999
1/11/2012 12:00,1.1,-0.4,-6999
1/11/2012 13:00,1.1,-0.4,-6999
1/11/2012 14:00,1.2,-0.3,-6999
1/11/2012 15:00,1.2,-0.3,-6999
1/11/2012 16:00,1.1,-0.2,-6999
1/11/2012 17:00,1.2,-0.2,-6999
1/11/2012 18:00,1.1,-0.3,-6999
1/11/2012 19:00,1.1,-0.3,-6999
1/11/2012 20:00,1.1,-0.4,-6999
1/11/2012 21:00,1.1,-0.4,-6999
1/11/2012 22:00,1.2,-0.5,-6999
1/11/2012 23:00,1,-0.5,-6999
1/12/2012 0:00,1.1,-0.6,-6999
1/12/2012 1:00,1.2,-0.6,-6999
1/12/2012 2:00,1.2,-0.6,-6999
1/12/2012 3:00,1,-0.6,-6999
1/12/2012 4:00,1,-0.6,-6999
1/12/2012 5:00,1.1,-0.6,-6999
1/12/2012 6:00,1.1,-0.6,-6999
1/12/2012 7:00,1,-0.7,-6999
1/12/2012 8:00,1,-0.7,-6999
1/12/2012 9:00,1,-0.7,-6999
1/12/2012 10:00,1,-0.7,-6999
1/12/2012 11:00,1,-0.6,-6999
1/12/2012 12:00,1.2,-0.5,-6999
1/12/2012 13:00,1.1,-0.5,-6999
1/12/2012 14:00,1.1,-0.5,-6999
1/12/2012 15:00,1.1,-0.5,-6999
1/12/2012 16:00,1,-0.5,-6999
1/12/2012 17:00,1,-0.5,-6999
1/12/2012 18:00,1.1,-0.5,-6999
1/12/2012 19:00,1.2,-0.6,-6999
1/12/2012 20:00,1.2,-0.6,-6999
1/12/2012 21:00,1.3,-0.5,-6999
1/12/2012 22:00,1.1,-0.5,-6999
1/12/2012 23:00,1.2,-0.5,-6999
1/13/2012 0:00,1.2,-0.5,-6999
1/13/2012 1:00,1.3,-0.5,-6999
1/13/2012 2:00,1.2,-0.6,-6999
1/13/2012 3:00,1.2,-0.6,-6999
1/13/2012 4:00,1.2,-0.6,-6999
1/13/2012 5:00,1.2,-0.6,-6999
1/13/2012 6:00,1.2,-0.6,-6999
1/13/2012 7:00,1.3,-0.6,-6999
1/13/2012 8:00,1.3,-0.7,-6999
1/13/2012 9:00,1.3,-0.7,-6999
1/13/2012 10:00,1.3,-0.6,-6999
1/13/2012 11:00,1.4,-0.6,-6999
1/13/2012 12:00,1.4,-0.5,-6999
1/13/2012 13:00,1.5,-0.4,-6999
1/13/2012 14:00,1.4,-0.3,-6999
1/13/2012 15:00,1.5,-0.1,-6999
1/13/2012 16:00,1.5,0,-6999
1/13/2012 17:00,1.5,0,-6999
1/13/2012 18:00,1.6,0.1,-6999
1/13/2012 19:00,1.7,0.1,-6999
1/13/2012 20:00,1.6,0.1,-6999
1/13/2012 21:00,1.6,0.2,-6999
1/13/2012 22:00,1.6,0.1,-6999
1/13/2012 23:00,1.9,0.1,-6999
1/14/2012 0:00,1.9,0.1,-6999
1/14/2012 1:00,2.2,0,-6999
1/14/2012 2:00,2.1,0,-6999
1/14/2012 3:00,2.1,0,-6999
1/14/2012 4:00,2.1,0,-6999
1/14/2012 5:00,2.5,0,-6999
1/14/2012 6:00,2.4,0,-6999
1/14/2012 7:00,2.7,0,-6999
1/14/2012 8:00,2.9,0,-6999
1/14/2012 9:00,2.4,0,-6999
1/14/2012 10:00,2.7,0.2,-6999
1/14/2012 11:00,2.7,0.4,-6999
1/14/2012 12:00,2.8,0.7,-6999
1/14/2012 13:00,2.7,0.9,-6999
1/14/2012 14:00,2.8,1.1,-6999
1/14/2012 15:00,3.2,1.2,-6999
1/14/2012 16:00,3.3,1.2,-6999
1/14/2012 17:00,3.3,1.2,-6999
1/14/2012 18:00,3.5,1.2,-6999
1/14/2012 19:00,3.3,1.1,-6999
1/14/2012 20:00,3.4,1,-6999
1/14/2012 21:00,3.4,0.9,-6999
1/14/2012 22:00,3.4,0.8,-6999
1/14/2012 23:00,3.3,0.8,-6999
1/15/2012 0:00,3.5,0.7,-6999
1/15/2012 1:00,3.3,0.6,-6999
1/15/2012 2:00,3.1,0.5,-6999
1/15/2012 3:00,2.8,0.4,-6999
1/15/2012 4:00,2.6,0.3,-6999
1/15/2012 5:00,2.6,0.2,-6999
1/15/2012 6:00,2.3,0.2,-6999
1/15/2012 7:00,2.3,0.2,-6999
1/15/2012 8:00,2.1,0.2,-6999
1/15/2012 9:00,1.8,0.1,-6999
1/15/2012 10:00,1.7,0,-6999
1/15/2012 11:00,1.7,0,-6999
1/15/2012 12:00,1.7,0.1,-6999
1/15/2012 13:00,1.7,0.1,-6999
1/15/2012 14:00,1.9,0.1,-6999
1/15/2012 15:00,1.7,0.1,-6999
1/15/2012 16:00,1.6,0,-6999
1/15/2012 17:00,1.7,-0.1,-6999
1/15/2012 18:00,1.8,-0.3,-6999
1/15/2012 19:00,1.8,-0.4,-6999
1/15/2012 20:00,1.9,-0.5,-6999
1/15/2012 21:00,1.9,-0.5,-6999
1/15/2012 22:00,1.7,-0.5,-6999
1/15/2012 23:00,1.5,-0.6,-6999
1/16/2012 0:00,1.6,-0.6,-6999
1/16/2012 1:00,1.5,-0.6,-6999
1/16/2012 2:00,1.5,-0.6,-6999
1/16/2012 3:00,1.4,-0.6,-6999
1/16/2012 4:00,1.3,-0.6,-6999
1/16/2012 5:00,1.3,-0.6,-6999
1/16/2012 6:00,1.3,-0.6,-6999
1/16/2012 7:00,1.2,-0.6,-6999
1/16/2012 8:00,1.1,-0.6,-6999
1/16/2012 9:00,1.1,-0.6,-6999
1/16/2012 10:00,1.1,-0.6,-6999
1/16/2012 11:00,1.1,-0.6,-6999
1/16/2012 12:00,1.1,-0.6,-6999
1/16/2012 13:00,1.1,-0.6,-6999
1/16/2012 14:00,1.1,-0.6,-6999
1/16/2012 15:00,1.1,-0.6,-6999
1/16/2012 16:00,1.1,-0.6,-6999
1/16/2012 17:00,1.1,-0.7,-6999
1/16/2012 18:00,1.1,-0.7,-6999
1/16/2012 19:00,1.2,-0.7,-6999
1/16/2012 20:00,1.2,-0.8,-6999
1/16/2012 21:00,1.2,-0.8,-6999
1/16/2012 22:00,1.2,-0.8,-6999
1/16/2012 23:00,1.3,-0.8,-6999
1/17/2012 0:00,1.2,-0.8,-6999
1/17/2012 1:00,1.2,-0.8,-6999
1/17/2012 2:00,1.3,-0.8,-6999
1/17/2012 3:00,1.4,-0.8,-6999
1/17/2012 4:00,1.4,-0.8,-6999
1/17/2012 5:00,1.3,-0.8,-6999
1/17/2012 6:00,1.3,-0.8,-6999
1/17/2012 7:00,1.4,-0.8,-6999
1/17/2012 8:00,1.3,-0.8,-6999
1/17/2012 9:00,1.3,-0.8,-6999
1/17/2012 10:00,1.2,-0.8,-6999
1/17/2012 11:00,1.3,-0.8,-6999
1/17/2012 12:00,1.3,-0.7,-6999
1/17/2012 13:00,1.3,-0.7,-6999
1/17/2012 14:00,1.5,-0.7,-6999
1/17/2012 15:00,1.5,-0.7,-6999
1/17/2012 16:00,1.6,-0.7,-6999
1/17/2012 17:00,1.5,-0.7,-6999
1/17/2012 18:00,1.6,-0.7,-6999
1/17/2012 19:00,1.5,-0.7,-6999
1/17/2012 20:00,1.6,-0.7,-6999
1/17/2012 21:00,1.6,-0.7,-6999
1/17/2012 22:00,1.6,-0.7,-6999
1/17/2012 23:00,1.7,-0.7,-6999
1/18/2012 0:00,1.8,-0.6,-6999
1/18/2012 1:00,1.8,-0.6,-6999
1/18/2012 2:00,1.8,-0.6,-6999
1/18/2012 3:00,1.8,-0.6,-6999
1/18/2012 4:00,1.9,-0.6,-6999
1/18/2012 5:00,1.8,-0.6,-6999
1/18/2012 6:00,1.7,-0.6,-6999
1/18/2012 7:00,1.6,-0.6,-6999
1/18/2012 8:00,1.7,-0.6,-6999
1/18/2012 9:00,1.9,-0.6,-6999
1/18/2012 10:00,2.1,-0.5,-6999
1/18/2012 11:00,2,-0.5,-6999
1/18/2012 12:00,2.3,-0.5,-6999
1/18/2012 13:00,2.3,-0.5,-6999
1/18/2012 14:00,2.2,-0.5,-6999
1/18/2012 15:00,2.3,-0.5,-6999
1/18/2012 16:00,2.2,-0.5,-6999
1/18/2012 17:00,2,-0.5,-6999
1/18/2012 18:00,2.1,-0.5,-6999
1/18/2012 19:00,2.3,-0.5,-6999
1/18/2012 20:00,2.2,-0.5,-6999
1/18/2012 21:00,2.2,-0.5,-6999
1/18/2012 22:00,2.2,-0.5,-6999
1/18/2012 23:00,2.3,-0.5,-6999
1/19/2012 0:00,2.3,-0.5,-6999
1/19/2012 1:00,2.3,-0.4,-6999
1/19/2012 2:00,2.3,-0.4,-6999
1/19/2012 3:00,2.3,-0.4,-6999
1/19/2012 4:00,2.3,-0.4,-6999
1/19/2012 5:00,2.4,-0.4,-6999
1/19/2012 6:00,2.5,-0.4,-6999
1/19/2012 7:00,2.5,-0.3,-6999
1/19/2012 8:00,2.6,-0.3,-6999
1/19/2012 9:00,2.6,-0.3,-6999
1/19/2012 10:00,2.7,-0.3,-6999
1/19/2012 11:00,2.6,-0.3,-6999
1/19/2012 12:00,2.9,-0.2,-6999
1/19/2012 13:00,3,-0.2,-6999
1/19/2012 14:00,2.9,-0.2,-6999
1/19/2012 15:00,3,-0.2,-6999
1/19/2012 16:00,2.8,-0.1,-6999
1/19/2012 17:00,3.1,0,-6999
1/19/2012 18:00,3.4,0.1,-6999
1/19/2012 19:00,3.3,0.1,-6999
1/19/2012 20:00,3,0.2,-6999
1/19/2012 21:00,3.1,0.2,-6999
1/19/2012 22:00,3.1,0.3,-6999
1/19/2012 23:00,2.9,0.3,-6999
1/20/2012 0:00,2.8,0.4,-6999
1/20/2012 1:00,2.5,0.4,-6999
1/20/2012 2:00,2.5,0.4,-6999
1/20/2012 3:00,2.4,0.4,-6999
1/20/2012 4:00,2.6,0.5,-6999
1/20/2012 5:00,2.5,0.5,-6999
1/20/2012 6:00,2.6,0.6,-6999
1/20/2012 7:00,2.6,0.6,-6999
1/20/2012 8:00,2.6,0.7,-6999
1/20/2012 9:00,2.5,0.7,-6999
1/20/2012 10:00,2.7,0.8,-6999
1/20/2012 11:00,2.7,0.7,-6999
1/20/2012 12:00,3,0.6,-6999
1/20/2012 13:00,3,0.7,-6999
1/20/2012 14:00,3.4,0.7,-6999
1/20/2012 15:00,3.4,0.8,-6999
1/20/2012 16:00,3.3,0.8,-6999
1/20/2012 17:00,3.3,0.8,-6999
1/20/2012 18:00,3.5,0.8,-6999
1/20/2012 19:00,3.3,0.8,-6999
1/20/2012 20:00,3.8,0.8,-6999
1/20/2012 21:00,4.1,0.9,-6999
1/20/2012 22:00,3.9,0.9,-6999
1/20/2012 23:00,4.1,0.9,-6999
1/21/2012 0:00,4.4,0.8,-6999
1/21/2012 1:00,4.7,0.8,-6999
1/21/2012 2:00,5.5,0.8,-6999
1/21/2012 3:00,5.7,0.7,-6999
1/21/2012 4:00,5.7,0.7,-6999
1/21/2012 5:00,6,0.6,-6999
1/21/2012 6:00,6.1,0.6,-6999
1/21/2012 7:00,5.9,0.6,-6999
1/21/2012 8:00,5.8,0.7,-6999
1/21/2012 9:00,5.5,0.7,-6999
1/21/2012 10:00,4.9,0.8,-6999
1/21/2012 11:00,5.1,0.8,-6999
1/21/2012 12:00,4.5,0.8,-6999
1/21/2012 13:00,4.4,0.7,-6999
1/21/2012 14:00,3.1,0.8,-6999
1/21/2012 15:00,3,0.8,-6999
1/21/2012 16:00,3.1,0.9,-6999
1/21/2012 17:00,3,0.9,-6999
1/21/2012 18:00,3,0.9,-6999
1/21/2012 19:00,2.5,0.9,-6999
1/21/2012 20:00,2.6,1,-6999
1/21/2012 21:00,2.5,1,-6999
1/21/2012 22:00,2.4,1,-6999
1/21/2012 23:00,2.1,1,-6999
1/22/2012 0:00,2.2,1,-6999
1/22/2012 1:00,2,1,-6999
1/22/2012 2:00,2.1,1,-6999
1/22/2012 3:00,1.9,1.1,-6999
1/22/2012 4:00,1.9,1.1,-6999
1/22/2012 5:00,2.2,1.1,-6999
1/22/2012 6:00,2.4,1.1,-6999
1/22/2012 7:00,2.4,1.1,-6999
1/22/2012 8:00,2.3,1.1,-6999
1/22/2012 9:00,2.3,1.1,-6999
1/22/2012 10:00,2.3,1.1,-6999
1/22/2012 11:00,2.7,1.1,-6999
1/22/2012 12:00,2.5,1.1,-6999
1/22/2012 13:00,2.5,1.2,-6999
1/22/2012 14:00,2.5,1.2,-6999
1/22/2012 15:00,2.7,1.2,-6999
1/22/2012 16:00,2.6,1.2,-6999
1/22/2012 17:00,2.6,1.2,-6999
1/22/2012 18:00,2.6,1.2,-6999
1/22/2012 19:00,2.6,1.2,-6999
1/22/2012 20:00,2.6,1.2,-6999
1/22/2012 21:00,2.7,1.2,-6999
1/22/2012 22:00,2.8,1.2,-6999
1/22/2012 23:00,2.6,1.2,-6999
1/23/2012 0:00,3.1,1.2,-6999
1/23/2012 1:00,2.8,1.2,-6999
1/23/2012 2:00,3.1,1.2,-6999
1/23/2012 3:00,3,1.3,-6999
1/23/2012 4:00,2.7,1.3,-6999
1/23/2012 5:00,2.8,1.3,-6999
1/23/2012 6:00,2.7,1.3,-6999
1/23/2012 7:00,2.8,1.3,-6999
1/23/2012 8:00,2.8,1.3,-6999
1/23/2012 9:00,2.7,1.3,-6999
1/23/2012 10:00,2.7,1.3,-6999
1/23/2012 11:00,2.5,1.3,-6999
1/23/2012 12:00,2.5,1.3,-6999
1/23/2012 13:00,2.4,1.3,-6999
1/23/2012 14:00,2.5,1.4,-6999
1/23/2012 15:00,2.4,1.4,-6999
1/23/2012 16:00,2.3,1.4,-6999
1/23/2012 17:00,2.1,1.4,-6999
1/23/2012 18:00,2,1.4,-6999
1/23/2012 19:00,2.1,1.4,-6999
1/23/2012 20:00,2.2,1.4,-6999
1/23/2012 21:00,2.2,1.4,-6999
1/23/2012 22:00,2.1,1.3,-6999
1/23/2012 23:00,2,1.3,-6999
1/24/2012 0:00,2.2,1.3,-6999
1/24/2012 1:00,2.1,1.3,-6999
1/24/2012 2:00,2,1.3,-6999
1/24/2012 3:00,1.9,1.3,-6999
1/24/2012 4:00,2.1,1.3,-6999
1/24/2012 5:00,2.1,1.3,-6999
1/24/2012 6:00,2,1.3,-6999
1/24/2012 7:00,2.1,1.3,-6999
1/24/2012 8:00,2.1,1.3,-6999
1/24/2012 9:00,2,1.3,-6999
1/24/2012 10:00,1.8,1.3,-6999
1/24/2012 11:00,2.1,1.3,-6999
1/24/2012 12:00,2.2,1.4,-6999
1/24/2012 13:00,2.1,1.4,-6999
1/24/2012 14:00,2.2,1.4,-6999
1/24/2012 15:00,2,1.4,-6999
1/24/2012 16:00,1.9,1.4,-6999
1/24/2012 17:00,1.9,1.4,-6999
1/24/2012 18:00,1.9,1.4,-6999
1/24/2012 19:00,2.1,1.4,-6999
1/24/2012 20:00,2.2,1.4,-6999
1/24/2012 21:00,2.1,1.4,-6999
1/24/2012 22:00,2.2,1.4,-6999
1/24/2012 23:00,2.4,1.4,-6999
1/25/2012 0:00,2.7,1.5,-6999
1/25/2012 1:00,2.5,1.5,-6999
1/25/2012 2:00,2.2,1.5,-6999
1/25/2012 3:00,2.4,1.5,-6999
1/25/2012 4:00,2.7,1.5,-6999
1/25/2012 5:00,2.6,1.5,-6999
1/25/2012 6:00,2.5,1.5,-6999
1/25/2012 7:00,2.8,1.5,-6999
1/25/2012 8:00,3,1.6,-6999
1/25/2012 9:00,2.6,1.6,-6999
1/25/2012 10:00,2.6,1.6,-6999
1/25/2012 11:00,2.5,1.6,-6999
1/25/2012 12:00,2.6,1.6,-6999
1/25/2012 13:00,2.5,1.6,-6999
1/25/2012 14:00,2.6,1.6,-6999
1/25/2012 15:00,2.7,1.6,-6999
1/25/2012 16:00,2.5,1.6,-6999
1/25/2012 17:00,2.5,1.6,-6999
1/25/2012 18:00,2.6,1.6,-6999
1/25/2012 19:00,2.6,1.6,-6999
1/25/2012 20:00,2.7,1.6,-6999
1/25/2012 21:00,2.9,1.6,-6999
1/25/2012 22:00,2.5,1.6,-6999
1/25/2012 23:00,2.7,1.6,-6999
1/26/2012 0:00,2.9,1.6,-6999
1/26/2012 1:00,2.9,1.6,-6999
1/26/2012 2:00,2.8,1.6,-6999
1/26/2012 3:00,3.1,1.6,-6999
1/26/2012 4:00,2.9,1.6,-6999
1/26/2012 5:00,2.9,1.6,-6999
1/26/2012 6:00,2.7,1.6,-6999
1/26/2012 7:00,2.5,1.6,-6999
1/26/2012 8:00,2.4,1.6,-6999
1/26/2012 9:00,2.3,1.6,-6999
1/26/2012 10:00,2.4,1.6,-6999
1/26/2012 11:00,2.3,1.6,-6999
1/26/2012 12:00,2.4,1.6,-6999
1/26/2012 13:00,2.3,1.6,-6999
1/26/2012 14:00,2.3,1.6,-6999
1/26/2012 15:00,2.3,1.6,-6999
1/26/2012 16:00,2.3,1.6,-6999
1/26/2012 17:00,2.2,1.6,-6999
1/26/2012 18:00,2.1,1.6,-6999
1/26/2012 19:00,1.9,1.6,-6999
1/26/2012 20:00,1.9,1.6,-6999
1/26/2012 21:00,1.7,1.6,-6999
1/26/2012 22:00,1.5,1.6,-6999
1/26/2012 23:00,1.6,1.6,-6999
1/27/2012 0:00,1.5,1.6,-6999
1/27/2012 1:00,1.4,1.6,-6999
1/27/2012 2:00,1.2,1.5,-6999
1/27/2012 3:00,1.4,1.5,-6999
1/27/2012 4:00,1.4,1.5,-6999
1/27/2012 5:00,1.3,1.5,-6999
1/27/2012 6:00,1.4,1.5,-6999
1/27/2012 7:00,1.2,1.5,-6999
1/27/2012 8:00,1.2,1.4,-6999
1/27/2012 9:00,1.2,1.4,-6999
1/27/2012 10:00,1.3,1.4,-6999
1/27/2012 11:00,1.3,1.4,-6999
1/27/2012 12:00,1.2,1.5,-6999
1/27/2012 13:00,1.3,1.5,-6999
1/27/2012 14:00,1.3,1.5,-6999
1/27/2012 15:00,1.2,1.5,-6999
1/27/2012 16:00,1.3,1.5,-6999
1/27/2012 17:00,1.3,1.5,-6999
1/27/2012 18:00,1.3,1.5,-6999
1/27/2012 19:00,1.3,1.5,-6999
1/27/2012 20:00,1.4,1.4,-6999
1/27/2012 21:00,1.4,1.4,-6999
1/27/2012 22:00,1.5,1.4,-6999
1/27/2012 23:00,1.5,1.4,-6999
1/28/2012 0:00,1.4,1.4,-6999
1/28/2012 1:00,1.5,1.4,-6999
1/28/2012 2:00,1.5,1.4,-6999
1/28/2012 3:00,1.6,1.3,-6999
1/28/2012 4:00,1.6,1.3,-6999
1/28/2012 5:00,1.6,1.3,-6999
1/28/2012 6:00,1.5,1.3,-6999
1/28/2012 7:00,1.5,1.3,-6999
1/28/2012 8:00,1.6,1.3,-6999
1/28/2012 9:00,1.4,1.3,-6999
1/28/2012 10:00,1.4,1.4,-6999
1/28/2012 11:00,1.4,1.4,-6999
1/28/2012 12:00,1.5,1.4,-6999
1/28/2012 13:00,1.5,1.5,-6999
1/28/2012 14:00,1.5,1.5,-6999
1/28/2012 15:00,1.5,1.5,-6999
1/28/2012 16:00,1.5,1.5,-6999
1/28/2012 17:00,1.6,1.5,-6999
1/28/2012 18:00,1.7,1.5,-6999
1/28/2012 19:00,1.9,1.5,-6999
1/28/2012 20:00,1.8,1.6,-6999
1/28/2012 21:00,1.7,1.6,-6999
1/28/2012 22:00,1.9,1.6,-6999
1/28/2012 23:00,1.9,1.6,-6999
1/29/2012 0:00,2.3,1.5,-6999
1/29/2012 1:00,2.1,1.5,-6999
1/29/2012 2:00,2.2,1.5,-6999
1/29/2012 3:00,2.2,1.5,-6999
1/29/2012 4:00,2.3,1.5,-6999
1/29/2012 5:00,2.8,1.5,-6999
1/29/2012 6:00,2.4,1.5,-6999
1/29/2012 7:00,2.5,1.5,-6999
1/29/2012 8:00,2.2,1.6,-6999
1/29/2012 9:00,2.2,1.6,-6999
1/29/2012 10:00,2.5,1.6,-6999
1/29/2012 11:00,2.5,1.6,-6999
1/29/2012 12:00,3.2,1.6,-6999
1/29/2012 13:00,2.8,1.6,-6999
1/29/2012 14:00,2.6,1.7,-6999
1/29/2012 15:00,2.5,1.7,-6999
1/29/2012 16:00,2.7,1.7,-6999
1/29/2012 17:00,2.9,1.7,-6999
1/29/2012 18:00,3.1,1.7,-6999
1/29/2012 19:00,3.3,1.7,-6999
1/29/2012 20:00,3.3,1.7,-6999
1/29/2012 21:00,3.5,1.7,-6999
1/29/2012 22:00,3.1,1.7,-6999
1/29/2012 23:00,3,1.7,-6999
1/30/2012 0:00,3.1,1.7,-6999
1/30/2012 1:00,3,1.7,-6999
1/30/2012 2:00,3.4,1.7,-6999
1/30/2012 3:00,3.3,1.7,-6999
1/30/2012 4:00,3.2,1.7,-6999
1/30/2012 5:00,3,1.8,-6999
1/30/2012 6:00,2.9,1.8,-6999
1/30/2012 7:00,2.7,1.8,-6999
1/30/2012 8:00,2.6,1.8,-6999
1/30/2012 9:00,2.6,1.8,-6999
1/30/2012 10:00,2.4,1.8,-6999
1/30/2012 11:00,2.4,1.8,-6999
1/30/2012 12:00,2.4,1.8,-6999
1/30/2012 13:00,2.3,1.8,-6999
1/30/2012 14:00,2.5,1.8,-6999
1/30/2012 15:00,2.3,1.8,-6999
1/30/2012 16:00,2.3,1.8,-6999
1/30/2012 17:00,2.3,1.8,-6999
1/30/2012 18:00,2.4,1.8,-6999
1/30/2012 19:00,2.4,1.7,-6999
1/30/2012 20:00,2.5,1.7,-6999
1/30/2012 21:00,2.7,1.7,-6999
1/30/2012 22:00,2.7,1.7,-6999
1/30/2012 23:00,2.8,1.7,-6999
1/31/2012 0:00,2.8,1.7,-6999
1/31/2012 1:00,2.8,1.6,-6999
1/31/2012 2:00,2.9,1.6,-6999
1/31/2012 3:00,3,1.6,-6999
1/31/2012 4:00,3,1.6,-6999
1/31/2012 5:00,3.1,1.6,-6999
1/31/2012 6:00,2.9,1.6,-6999
1/31/2012 7:00,2.9,1.6,-6999
1/31/2012 8:00,2.8,1.6,-6999
1/31/2012 9:00,2.8,1.6,-6999
1/31/2012 10:00,2.7,1.6,-6999
1/31/2012 11:00,2.6,1.6,-6999
1/31/2012 12:00,2.5,1.7,-6999
1/31/2012 13:00,2.4,1.7,-6999
1/31/2012 14:00,2.5,1.7,-6999
1/31/2012 15:00,2.5,1.7,-6999
1/31/2012 16:00,2.6,1.7,-6999
1/31/2012 17:00,2.6,1.7,-6999
1/31/2012 18:00,2.5,1.7,-6999
1/31/2012 19:00,2.6,1.7,-6999
1/31/2012 20:00,2.8,1.7,-6999
1/31/2012 21:00,3,1.7,-6999
1/31/2012 22:00,2.9,1.7,-6999
1/31/2012 23:00,3.2,1.7,-6999
2/1/2012 0:00,3.5,1.7,-6999
2/1/2012 1:00,3.2,1.7,-6999
2/1/2012 2:00,3.4,1.7,-6999
2/1/2012 3:00,3.7,1.7,-6999
2/1/2012 4:00,3.7,1.7,-6999
2/1/2012 5:00,3.6,1.7,-6999
2/1/2012 6:00,3.7,1.7,-6999
2/1/2012 7:00,3.6,1.7,-6999
2/1/2012 8:00,2.8,1.7,-6999
2/1/2012 9:00,2.5,1.7,-6999
2/1/2012 10:00,2.7,1.8,-6999
2/1/2012 11:00,2.3,1.8,-6999
2/1/2012 12:00,2.4,1.8,-6999
2/1/2012 13:00,2.3,1.8,-6999
2/1/2012 14:00,2.4,1.7,-6999
2/1/2012 15:00,2.3,1.7,-6999
2/1/2012 16:00,2.2,1.7,-6999
2/1/2012 17:00,2.1,1.7,-6999
2/1/2012 18:00,2.1,1.7,-6999
2/1/2012 19:00,2.1,1.8,-6999